Flag for Russia Weather past 2 weeks in Kaliningrad, Russia

Now
52 °F

Partly sunny.


Feels Like: 51 °F
Forecast: 47 / 53 °F
Wind: 3 mph from West

Location: Kaliningrad/Khrabrovo Airport

Current Time: Sep 22, 2014 at 9:42:06 PM

Latest Report: Sep 22, 2014 at 9:00 PM


Visibility: N/A

Pressure: 29.62 "Hg

Humidity: 82%

Dew point: 46 °F

Location of KaliningradLocation

Historic Weather in Kaliningrad — Graph

°F

Kaliningrad temperature yesterday

Maximum temperature yesterday: 72 °F (at 2:30 PM)
Minimum temperature yesterday: 41 °F (at 7:30 AM)
Average temperature yesterday: 57 °F

Past Weeks' High & Low Weather Summary

 TemperatureHumidityPressure
High75 °F (Sep 8, 1:30 PM)94% (Sep 8, 9:30 PM)30.33 "Hg (Sep 8, 9:30 PM)
Low41 °F (Sep 21, 7:30 AM)38% (Sep 17, 5:00 PM)29.53 "Hg (Sep 22, 7:30 AM)
Average59 °F76%30.07 "Hg
* Reported Sep 7 8:00 PM — Sep 22 8:00 PM, Kaliningrad, Weather by CustomWeather, © 2014

Note: Actual official high and low records may vary slightly from our data, if they occured in-between our weather recording intervals... More about our weather records

Advertising

Kaliningrad weather history for previous 24 hours

 ConditionsComfort  
Time TempWeatherWind HumidityBarometerVisibility
8:00 PM
Sep 22
52 °FScattered clouds.8 mph82%29.62 "HgN/A
7:30 PM55 °FScattered clouds.8 mph72%29.62 "HgN/A
7:00 PM57 °FScattered clouds.8 mph67%29.62 "HgN/A
6:30 PM57 °FScattered clouds.8 mph67%29.59 "HgN/A
6:00 PM59 °FPartly sunny.10 mph59%29.59 "HgN/A
5:30 PM57 °FPartly sunny.8 mph67%29.59 "HgN/A
5:00 PM57 °FPartly sunny.10 mph67%29.59 "HgN/A
4:30 PM57 °FPartly sunny.10 mph72%29.59 "HgN/A
4:00 PM57 °FPartly sunny.13 mph72%29.59 "HgN/A
3:30 PM59 °FSprinkles. Partly sunny.13 mph77%29.59 "HgN/A
3:00 PM61 °FPartly sunny.8 mph68%29.59 "HgN/A
2:30 PM63 °FPartly sunny.10 mph56%29.59 "HgN/A
2:00 PM59 °FPartly sunny.6 mph72%29.59 "HgN/A
1:30 PM57 °FPartly sunny.6 mph82%29.59 "HgN/A
1:00 PM57 °FSprinkles. Mostly cloudy.8 mph82%29.56 "HgN/A
12:30 PM59 °FMostly cloudy.8 mph77%29.56 "HgN/A
12:00 PM59 °FMostly cloudy.10 mph77%29.56 "HgN/A
11:30 AM59 °FPartly sunny.8 mph72%29.56 "HgN/A
11:00 AM59 °FPartly sunny.8 mph77%29.56 "HgN/A
10:30 AM61 °FBroken clouds.8 mph72%29.56 "HgN/A
10:00 AM57 °FPartly sunny.6 mph88%29.56 "HgN/A
9:30 AM57 °FBroken clouds.6 mph88%29.56 "HgN/A
9:00 AM57 °FPassing clouds.3 mph88%29.53 "Hg5 mi
8:30 AM55 °FPassing clouds.3 mph94%29.56 "Hg5 mi
8:00 AM55 °FPassing clouds.6 mph94%29.56 "Hg5 mi
7:30 AM55 °FMostly cloudy.6 mph94%29.53 "Hg4 mi
7:00 AM55 °FMostly cloudy.6 mph94%29.56 "Hg4 mi
6:30 AM57 °FMostly cloudy.6 mph88%29.56 "Hg4 mi
6:00 AM57 °FFog.6 mph88%29.56 "Hg3 mi
5:30 AM57 °FFog.6 mph88%29.56 "Hg3 mi
5:00 AM57 °FMostly cloudy.6 mph88%29.56 "Hg4 mi
4:00 AM55 °FMostly cloudy.3 mph94%29.59 "Hg4 mi
3:00 AM57 °FSprinkles. Fog.6 mph94%29.59 "Hg3 mi
2:00 AM59 °FSprinkles. Fog.3 mph88%29.59 "Hg2 mi
1:00 AM59 °FFog.3 mph88%29.62 "Hg2 mi
12:30 AM59 °FFog.3 mph88%29.62 "Hg2 mi
12:00 AM59 °FSprinkles. Fog.6 mph88%29.62 "Hg2 mi
11:00 PM
Sep 21
59 °FSprinkles. Fog.6 mph88%29.65 "Hg3 mi
10:30 PM61 °FPartly cloudy.6 mph83%29.65 "Hg4 mi
10:00 PM57 °FPartly cloudy.3 mph88%29.65 "Hg4 mi
9:00 PM61 °FMostly cloudy.1 mph83%29.68 "Hg4 mi
Weather by CustomWeather, © 2014

See weather overviewHow to use our weather pages